This is the latest recevied weather packets stored in our database for station/object 9D9-WX. If no packets are shown the sender has not sent any weather packets the latest 1 day(s).
| Time | Temp. | Humidity | Pressure | Rain* | Wind** | Luminosity | Snow |
|---|---|---|---|---|---|---|---|
| 1778000429 | 12.22° C | 36% | 978.4 hPa | 0 mm | 5.81 m/s, 280° | - | - |
| 1777999512 | 12.22° C | 43% | 979.1 hPa | 0 mm | 5.81 m/s, 279° | - | - |
| 1777998628 | 11.11° C | 45% | 977.4 hPa | 0 mm | 5.81 m/s, 278° | - | - |
| 1777997712 | 10.56° C | 45% | 977.4 hPa | 0 mm | 5.36 m/s, 273° | - | - |
| 1777996833 | 11.11° C | 45% | 977.4 hPa | 0 mm | 5.36 m/s, 272° | - | - |
| 1777995909 | 10.56° C | 52% | 979.3 hPa | 0 mm | 5.36 m/s, 271° | - | - |
| 1777995030 | 10° C | 49% | 978.2 hPa | 0 mm | 5.81 m/s, 278° | - | - |
| 1777994112 | 10.56° C | 49% | 978.2 hPa | 0 mm | 6.26 m/s, 280° | - | - |
| 1777993233 | 10.56° C | 49% | 978.2 hPa | 0 mm | 5.81 m/s, 274° | - | - |
| 1777992311 | 10.56° C | 72% | 978.1 hPa | 0.25 mm | 5.36 m/s, 278° | - | - |
| 1777991425 | 11.11° C | 51% | 978.2 hPa | 0.25 mm | 5.81 m/s, 273° | - | - |
| 1777990511 | 10.56° C | 51% | 978.1 hPa | 0.25 mm | 5.81 m/s, 271° | - | - |
| 1777989634 | 10° C | 51% | 978.1 hPa | 0.25 mm | 4.47 m/s, 266° | - | - |
| 1777988711 | 10° C | 67% | 977.9 hPa | 0 mm | 5.81 m/s, 280° | - | - |
| 1777987832 | 10.56° C | 67% | 977.9 hPa | 0 mm | 5.81 m/s, 289° | - | - |
| 1777986911 | 10.56° C | 67% | 977.9 hPa | 0 mm | 5.36 m/s, 291° | - | - |
| 1777986033 | 11.11° C | 67% | 977.9 hPa | 0 mm | 4.02 m/s, 295° | - | - |
| 1777985111 | 10.56° C | 73% | 977 hPa | 0 mm | 4.02 m/s, 308° | - | - |
| 1777984229 | 10.56° C | 73% | 975.6 hPa | 0 mm | 4.02 m/s, 295° | - | - |
| 1777983311 | 10° C | 73% | 975.6 hPa | 0 mm | 4.47 m/s, 297° | - | - |
| 1777982435 | 9.44° C | 73% | 975.6 hPa | 0 mm | 4.92 m/s, 282° | - | - |
| 1777981512 | 9.44° C | 71% | 975.6 hPa | 0 mm | 4.47 m/s, 276° | - | - |
| 1777980625 | 9.44° C | 68% | 974.2 hPa | 0 mm | 4.47 m/s, 268° | - | - |
| 1777979711 | 9.44° C | 68% | 974.2 hPa | 0 mm | 4.02 m/s, 262° | - | - |
| 1777978835 | 9.44° C | 68% | 974.2 hPa | 0 mm | 4.02 m/s, 262° | - | - |
* Rain latest hour (hover to see other rain measurements)
** Current wind speed in m/s (hover to see current wind gust speed)